�������l�o���
Date,Time,MP-1(��Sv/h),MP-2(��Sv/h),MP-3(��Sv/h),MP-4(��Sv/h),MP-5(��Sv/h),MP-6(��Sv/h),MP-7(��Sv/h),MP-8(��Sv/h),����,����(m/s),���J
2022/01/14,00:00,0.570,0.857,0.548,1.054,0.734,0.347,0.609,0.579,��,9.3,��
2022/01/14,00:10,0.572,0.857,0.546,1.053,0.733,0.346,0.609,0.579,���k��,8.5,��
2022/01/14,00:20,0.572,0.859,0.546,1.053,0.734,0.347,0.608,0.577,���k��,9.8,��
2022/01/14,00:30,0.572,0.858,0.546,1.049,0.734,0.347,0.609,0.577,��,8.2,��
2022/01/14,00:40,0.572,0.858,0.547,1.054,0.736,0.347,0.609,0.579,��,6.7,��
2022/01/14,00:50,0.572,0.859,0.547,1.054,0.736,0.348,0.608,0.580,���k��,6.9,��
2022/01/14,01:00,0.572,0.859,0.545,1.054,0.737,0.348,0.608,0.579,���k��,11.7,��
2022/01/14,01:10,0.574,0.858,0.547,1.055,0.738,0.348,0.608,0.578,���k��,10.2,��
2022/01/14,01:20,0.573,0.861,0.547,1.053,0.737,0.348,0.610,0.578,���k��,11.3,��
2022/01/14,01:30,0.573,0.862,0.546,1.052,0.737,0.350,0.610,0.580,���k��,9.9,��
2022/01/14,01:40,0.573,0.860,0.547,1.053,0.736,0.348,0.608,0.579,�k��,8.8,��
2022/01/14,01:50,0.572,0.858,0.544,1.053,0.736,0.348,0.608,0.579,���k��,6.3,��
2022/01/14,02:00,0.573,0.858,0.548,1.053,0.737,0.348,0.606,0.579,��,6.3,��
2022/01/14,02:10,0.573,0.858,0.548,1.055,0.738,0.349,0.609,0.577,���쐼,4.4,��
2022/01/14,02:20,0.572,0.858,0.546,1.054,0.737,0.349,0.609,0.579,���쐼,6.8,��
2022/01/14,02:30,0.574,0.859,0.548,1.054,0.737,0.348,0.609,0.578,���쐼,6.4,��
2022/01/14,02:40,0.573,0.859,0.547,1.054,0.737,0.348,0.609,0.578,���쐼,7.1,��
2022/01/14,02:50,0.572,0.859,0.549,1.054,0.737,0.348,0.609,0.580,���쐼,5.8,��
2022/01/14,03:00,0.574,0.858,0.547,1.055,0.736,0.349,0.608,0.578,��,7.3,��
2022/01/14,03:10,0.573,0.858,0.547,1.055,0.737,0.349,0.608,0.578,��,8.2,��
2022/01/14,03:20,0.572,0.858,0.548,1.054,0.738,0.349,0.607,0.580,��,5.7,��
2022/01/14,03:30,0.571,0.858,0.548,1.052,0.734,0.349,0.610,0.578,��,7.0,��
2022/01/14,03:40,0.571,0.858,0.547,1.053,0.734,0.349,0.610,0.578,���쐼,8.2,��
2022/01/14,03:50,0.570,0.861,0.549,1.052,0.734,0.348,0.609,0.578,��,6.7,��
2022/01/14,04:00,0.572,0.856,0.548,1.053,0.735,0.349,0.608,0.578,���쐼,6.2,��
2022/01/14,04:10,0.572,0.858,0.548,1.054,0.734,0.349,0.609,0.578,��,7.1,��
2022/01/14,04:20,0.572,0.858,0.548,1.053,0.736,0.350,0.609,0.580,��,6.6,��
2022/01/14,04:30,0.572,0.859,0.547,1.054,0.735,0.349,0.609,0.579,��,7.8,��
2022/01/14,04:40,0.572,0.858,0.547,1.052,0.735,0.348,0.609,0.578,��,6.4,��
2022/01/14,04:50,0.574,0.856,0.549,1.052,0.735,0.348,0.608,0.577,��,5.1,��
2022/01/14,05:00,0.572,0.856,0.548,1.052,0.736,0.349,0.610,0.578,��,4.4,��
2022/01/14,05:10,0.569,0.859,0.548,1.053,0.735,0.348,0.610,0.577,��,4.1,��
2022/01/14,05:20,0.572,0.857,0.548,1.052,0.737,0.348,0.609,0.577,��,3.9,��
2022/01/14,05:30,0.571,0.858,0.548,1.053,0.735,0.349,0.609,0.577,���k��,4.3,��
2022/01/14,05:40,0.571,0.859,0.547,1.053,0.736,0.349,0.609,0.578,��,5.6,��
2022/01/14,05:50,0.572,0.858,0.547,1.052,0.736,0.349,0.609,0.579,���k��,4.2,��
2022/01/14,06:00,0.572,0.856,0.548,1.055,0.737,0.348,0.607,0.578,���k��,5.5,��
2022/01/14,06:10,0.571,0.856,0.548,1.050,0.736,0.347,0.609,0.579,���k��,6.1,��
2022/01/14,06:20,0.570,0.857,0.549,1.053,0.737,0.348,0.609,0.579,���k��,5.0,��
2022/01/14,06:30,0.571,0.857,0.547,1.054,0.736,0.348,0.609,0.578,��,5.2,��
2022/01/14,06:40,0.572,0.857,0.547,1.052,0.736,0.347,0.608,0.579,��,9.8,��
2022/01/14,06:50,0.572,0.856,0.546,1.052,0.736,0.348,0.610,0.580,��,6.9,��
2022/01/14,07:00,0.572,0.857,0.548,1.052,0.735,0.348,0.610,0.579,��,7.4,��
2022/01/14,07:10,0.571,0.856,0.546,1.051,0.735,0.348,0.609,0.578,��,9.8,��
2022/01/14,07:20,0.572,0.857,0.546,1.053,0.734,0.347,0.610,0.579,��,9.0,��
2022/01/14,07:30,0.571,0.857,0.547,1.051,0.733,0.348,0.608,0.580,���k��,8.0,��
2022/01/14,07:40,0.574,0.856,0.546,1.051,0.733,0.349,0.610,0.579,���k��,7.0,��
2022/01/14,07:50,0.570,0.858,0.550,1.053,0.732,0.349,0.608,0.578,��,5.5,��
2022/01/14,08:00,0.571,0.856,0.547,1.053,0.735,0.350,0.609,0.580,��,4.2,��
2022/01/14,08:10,0.573,0.857,0.546,1.055,0.734,0.349,0.608,0.577,��,5.0,��
2022/01/14,08:20,0.572,0.856,0.548,1.051,0.735,0.348,0.609,0.579,���k��,6.5,��
2022/01/14,08:30,0.572,0.857,0.549,1.053,0.735,0.350,0.609,0.579,���k��,8.4,��
2022/01/14,08:40,0.574,0.857,0.548,1.054,0.736,0.347,0.610,0.579,��,9.1,��
2022/01/14,08:50,0.572,0.855,0.547,1.054,0.736,0.348,0.610,0.579,��,9.0,��
2022/01/14,09:00,0.575,0.856,0.547,1.052,0.735,0.348,0.610,0.581,���k��,9.2,��
2022/01/14,09:10,0.572,0.856,0.549,1.054,0.737,0.348,0.610,0.577,���k��,8.0,��
2022/01/14,09:20,0.573,0.857,0.550,1.053,0.734,0.349,0.609,0.580,��,8.5,��
2022/01/14,09:30,0.573,0.855,0.547,1.055,0.736,0.349,0.610,0.578,���k��,6.9,��
2022/01/14,09:40,0.574,0.853,0.549,1.055,0.737,0.347,0.610,0.580,���k��,6.1,��
2022/01/14,09:50,0.574,0.853,0.549,1.054,0.737,0.350,0.611,0.578,���k��,8.4,��
2022/01/14,10:00,0.572,0.856,0.547,1.056,0.738,0.349,0.609,0.580,��,7.0,��
2022/01/14,10:10,0.574,0.859,0.543,1.052,0.736,0.348,0.607,0.579,��,5.7,��
2022/01/14,10:20,0.572,0.861,0.548,1.055,0.736,0.350,0.610,0.579,���k��,8.8,��
2022/01/14,10:30,0.574,0.859,0.550,1.054,0.737,0.350,0.609,0.580,���k��,8.9,��
2022/01/14,10:40,0.574,0.859,0.550,1.055,0.737,0.349,0.609,0.579,���k��,8.5,��
2022/01/14,10:50,0.574,0.859,0.548,1.054,0.738,0.348,0.609,0.579,���k��,7.9,��
2022/01/14,11:00,0.574,0.858,0.549,1.055,0.737,0.349,0.608,0.582,���k��,8.0,��
2022/01/14,11:10,0.576,0.860,0.549,1.056,0.739,0.350,0.607,0.579,���k��,8.6,��
2022/01/14,11:20,0.574,0.860,0.548,1.056,0.738,0.349,0.609,0.578,���k��,5.9,��
2022/01/14,11:30,0.576,0.860,0.551,1.054,0.740,0.349,0.609,0.580,���k��,13.0,��
2022/01/14,11:40,0.576,0.860,0.552,1.056,0.737,0.349,0.610,0.579,���k��,8.7,��
2022/01/14,11:50,0.575,0.861,0.550,1.057,0.739,0.349,0.610,0.579,���k��,7.5,��
2022/01/14,12:00,0.575,0.860,0.550,1.054,0.738,0.349,0.609,0.580,���k��,9.9,��
2022/01/14,12:10,0.576,0.861,0.551,1.055,0.740,0.349,0.611,0.581,���k��,9.2,��
2022/01/14,12:20,0.576,0.863,0.550,1.056,0.742,0.351,0.608,0.580,���k��,9.2,��
2022/01/14,12:30,0.578,0.860,0.551,1.056,0.739,0.349,0.610,0.580,���k��,8.8,��
2022/01/14,12:40,0.574,0.862,0.551,1.057,0.741,0.350,0.611,0.580,���k��,10.0,��
2022/01/14,12:50,0.573,0.862,0.549,1.056,0.740,0.350,0.611,0.581,���k��,10.2,��
2022/01/14,13:00,0.577,0.857,0.550,1.057,0.740,0.350,0.611,0.581,���k��,6.7,��
2022/01/14,13:10,0.576,0.855,0.550,1.057,0.743,0.349,0.611,0.580,��,5.4,��
2022/01/14,13:20,0.577,0.855,0.551,1.056,0.741,0.349,0.610,0.580,��,8.5,��
2022/01/14,13:30,0.577,0.857,0.551,1.056,0.741,0.349,0.610,0.581,��,6.5,��
2022/01/14,13:40,0.577,0.861,0.550,1.054,0.740,0.350,0.611,0.580,���k��,7.3,��
2022/01/14,13:50,0.577,0.863,0.551,1.057,0.739,0.351,0.611,0.580,��,7.8,��
2022/01/14,14:00,0.577,0.863,0.549,1.057,0.741,0.350,0.610,0.579,���k��,6.2,��
2022/01/14,14:10,0.576,0.863,0.550,1.056,0.741,0.350,0.609,0.580,��,9.1,��
2022/01/14,14:20,0.578,0.863,0.550,1.057,0.739,0.351,0.610,0.578,���k��,10.9,��
2022/01/14,14:30,0.576,0.864,0.552,1.055,0.740,0.350,0.610,0.580,���k��,10.2,��
2022/01/14,14:40,0.576,0.863,0.552,1.059,0.742,0.350,0.609,0.581,���k��,9.0,��
2022/01/14,14:50,0.577,0.864,0.551,1.057,0.739,0.350,0.609,0.581,���k��,10.2,��
2022/01/14,15:00,0.576,0.861,0.550,1.058,0.741,0.350,0.610,0.582,���k��,8.9,��
2022/01/14,15:10,0.578,0.864,0.551,1.058,0.740,0.349,0.611,0.580,���k��,8.0,��
2022/01/14,15:20,0.578,0.865,0.552,1.057,0.743,0.349,0.610,0.581,���k��,7.7,��
2022/01/14,15:30,0.577,0.864,0.551,1.057,0.742,0.350,0.609,0.581,��,6.5,��
2022/01/14,15:40,0.577,0.865,0.552,1.060,0.741,0.350,0.608,0.581,���k��,10.4,��
2022/01/14,15:50,0.577,0.865,0.552,1.059,0.742,0.351,0.611,0.579,���k��,8.7,��
2022/01/14,16:00,0.577,0.865,0.551,1.058,0.742,0.349,0.611,0.581,���k��,11.1,��
2022/01/14,16:10,0.577,0.869,0.551,1.059,0.742,0.349,0.610,0.582,���k��,7.3,��
2022/01/14,16:20,0.576,0.866,0.551,1.060,0.741,0.350,0.609,0.581,���k��,8.3,��
2022/01/14,16:30,0.577,0.866,0.551,1.060,0.743,0.349,0.609,0.581,���k��,7.7,��
2022/01/14,16:40,0.577,0.865,0.552,1.057,0.741,0.350,0.610,0.581,�k��,7.3,��
2022/01/14,16:50,0.577,0.866,0.549,1.059,0.740,0.350,0.610,0.581,���k��,5.0,��
2022/01/14,17:00,0.577,0.863,0.549,1.058,0.740,0.350,0.611,0.581,��,3.9,��
2022/01/14,17:10,0.576,0.864,0.549,1.055,0.740,0.349,0.609,0.582,���k��,6.3,��
2022/01/14,17:20,0.577,0.862,0.550,1.058,0.741,0.350,0.612,0.581,���k��,5.2,��
2022/01/14,17:30,0.574,0.865,0.550,1.059,0.741,0.349,0.609,0.582,���k��,4.5,��
2022/01/14,17:40,0.574,0.864,0.549,1.059,0.741,0.349,0.609,0.581,�k,2.9,��
2022/01/14,17:50,0.575,0.865,0.550,1.055,0.741,0.350,0.611,0.579,�k,3.2,��
2022/01/14,18:00,0.574,0.863,0.550,1.058,0.741,0.349,0.609,0.581,�k��,3.2,��
2022/01/14,18:10,0.576,0.863,0.551,1.057,0.740,0.349,0.609,0.582,���k��,4.8,��
2022/01/14,18:20,0.576,0.864,0.550,1.057,0.742,0.349,0.610,0.581,�k��,6.2,��
2022/01/14,18:30,0.576,0.863,0.549,1.057,0.741,0.348,0.608,0.580,�k��,3.2,��
2022/01/14,18:40,0.575,0.865,0.551,1.058,0.743,0.350,0.609,0.581,�k��,4.7,��
2022/01/14,18:50,0.576,0.863,0.551,1.059,0.742,0.349,0.609,0.580,�k��,4.3,��
2022/01/14,19:00,0.578,0.864,0.550,1.059,0.741,0.350,0.609,0.580,�k�k��,4.5,��
2022/01/14,19:10,0.577,0.865,0.550,1.057,0.740,0.349,0.609,0.579,�k�k��,2.8,��
2022/01/14,19:20,0.575,0.864,0.550,1.059,0.742,0.348,0.609,0.579,�k�k��,1.5,��
2022/01/14,19:30,0.576,0.863,0.550,1.059,0.740,0.350,0.609,0.580,���k��,2.9,��
2022/01/14,19:40,0.576,0.865,0.549,1.057,0.740,0.348,0.609,0.579,���k��,3.0,��
2022/01/14,19:50,0.576,0.864,0.550,1.057,0.743,0.347,0.609,0.579,�k�k��,2.0,��
2022/01/14,20:00,0.576,0.865,0.550,1.057,0.742,0.349,0.609,0.579,�k�k��,2.3,��
2022/01/14,20:10,0.575,0.865,0.549,1.056,0.741,0.350,0.610,0.580,�k,1.9,��
2022/01/14,20:20,0.576,0.865,0.550,1.057,0.741,0.350,0.609,0.579,�k,2.6,��
2022/01/14,20:30,0.576,0.863,0.550,1.059,0.740,0.349,0.610,0.579,�k�k��,3.5,��
2022/01/14,20:40,0.576,0.863,0.550,1.058,0.740,0.350,0.606,0.579,�k,3.7,��
2022/01/14,20:50,0.577,0.863,0.549,1.057,0.741,0.349,0.608,0.579,�k�k��,4.1,��
2022/01/14,21:00,0.573,0.864,0.549,1.059,0.742,0.350,0.608,0.580,�k�k��,4.2,��
2022/01/14,21:10,0.576,0.863,0.549,1.058,0.741,0.349,0.608,0.578,�k,3.1,��
2022/01/14,21:20,0.573,0.863,0.548,1.058,0.740,0.349,0.608,0.578,��,0.8,��
2022/01/14,21:30,0.574,0.864,0.548,1.056,0.741,0.348,0.608,0.577,��,0.9,��
2022/01/14,21:40,0.574,0.862,0.547,1.057,0.740,0.349,0.608,0.579,�k��,2.3,��
2022/01/14,21:50,0.575,0.862,0.548,1.056,0.741,0.349,0.611,0.577,��,1.2,��
2022/01/14,22:00,0.577,0.863,0.549,1.056,0.740,0.350,0.608,0.578,�k��,5.1,��
2022/01/14,22:10,0.574,0.863,0.549,1.060,0.741,0.348,0.609,0.576,�k��,5.0,��
2022/01/14,22:20,0.577,0.862,0.549,1.058,0.738,0.348,0.608,0.578,�k��,3.5,��
2022/01/14,22:30,0.575,0.863,0.550,1.058,0.739,0.346,0.608,0.578,�k��,4.3,��
2022/01/14,22:40,0.575,0.864,0.547,1.057,0.741,0.348,0.611,0.578,�k�k��,7.1,��
2022/01/14,22:50,0.575,0.862,0.549,1.058,0.741,0.347,0.608,0.578,�k��,4.9,��
2022/01/14,23:00,0.575,0.860,0.547,1.057,0.739,0.349,0.609,0.578,�k��,4.5,��
2022/01/14,23:10,0.575,0.863,0.547,1.056,0.739,0.347,0.608,0.578,���k��,8.8,��
2022/01/14,23:20,0.575,0.864,0.548,1.060,0.738,0.347,0.610,0.577,���k��,12.7,��
2022/01/14,23:30,0.575,0.864,0.549,1.058,0.739,0.347,0.608,0.578,��,11.3,��
2022/01/14,23:40,0.575,0.861,0.548,1.056,0.739,0.348,0.610,0.578,���k��,16.0,��
2022/01/14,23:50,0.574,0.860,0.548,1.058,0.740,0.347,0.609,0.579,���k��,14.4,��
